Almeria, Spain

1:59 AM CEST en Abril 23, 2018 (GMT +0200)
Almeria

Tiempo Historia de LEAM - Enero, 2018

Change the Weather History Date:

Sábado, Enero 13, 2018

  Actual Average Record
Temperature  
Temperatura media 51 ° F -  
Temperatura máxima 58 ° F 59 ° F 66 ° F (2016)
Temperatura mínima 44 ° F 46 ° F 41 ° F (2007)
Degree Days  
Grados día de calefacción 14    
Growing Degree Days 1 (Base 50)    
Moisture  
Punto de rocío 42 ° F    
Average Humidity 67    
Maximum Humidity 82    
Minimum Humidity 44    
Precipitación  
Precipitación 0.00 pul 0.03 pul - ()
Presión al nivel del mar  
Presión al nivel del mar 30.12 pul    
Viento  
Velocidad del viento 7 mph ()    
Velocidad máxima del viento 21 mph    
Max Gust Speed -    
Visibilidad 6.2 Millas    
Eventos      
Averages and records for this station are not official NWS values.
T = Trace of Precipitation, MM = Missing Value Source: Averaged Metar Reports

Daily Weather History Graph

Daily Weather History Graph

Search for Another Location

Airport or City:

Astronomía

Jan. 13, 2018 Salida Puesta
Hora real 8:22 AM CET 6:14 PM CET
Crepúsculo civil 7:53 AM CET 6:43 PM CET
Crepúsculo náutico 7:21 AM CET 7:14 PM CET
Crepúsculo astronómico 6:50 AM CET 7:46 PM CET
Luna 5:12 AM CET (1/13) 3:39 PM CET (1/13)
Horas de luz 10h 49m
Horas de luz
9h 52m
Creciente menguante, 11% of the Moon is Illuminated
Ene 13
Creciente menguante
Ene 17
Nueva
Ene 24
Cuarto creciente
Ene 31
Luna llena
Feb 7
Cuarto menguante

Hourly Weather History & Observations

Hora (CET) Temp. Vientos helados Punto de rocío Humedad Presión Visibilidad Wind Dir Velocidad del viento Velocidad de ráfagas Precip Eventos Condiciones
12:00 AM 51 ° F - 42 ° F 62% 30.25 pul - NNO 6.9 mph - -  
12:00 AM 50.0 ° F - 42.8 ° F 76% 30.24 pul - NNO 6.9 mph - N/A   Despejado
12:30 AM 50.0 ° F - 41.0 ° F 71% 30.24 pul - NNO 3.5 mph - N/A   Despejado
1:00 AM 49 ° F - 40 ° F 61% 30.23 pul - Norte 6.9 mph - -  
1:00 AM 48.2 ° F - 39.2 ° F 71% 30.21 pul - Norte 6.9 mph - N/A   Despejado
1:30 AM 48.2 ° F - 39.2 ° F 71% 30.21 pul - Norte 5.8 mph - N/A   Despejado
2:00 AM 46.4 ° F 42.9 ° F 39.2 ° F 76% 30.18 pul 6.2 mi NNO 6.9 mph - N/A   Desconocido
2:30 AM 46.4 ° F 42.4 ° F 37.4 ° F 71% 30.18 pul 6.2 mi NNO 8.1 mph - N/A   Desconocido
3:00 AM 46.4 ° F 42.4 ° F 37.4 ° F 71% 30.18 pul 6.2 mi Norte 8.1 mph - N/A   Desconocido
3:30 AM 44.6 ° F 41.4 ° F 37.4 ° F 76% 30.18 pul 6.2 mi Norte 5.8 mph - N/A   Desconocido
4:00 AM 45 ° F - 37 ° F 64% 30.18 pul - NNO 8.1 mph - -  
4:00 AM 44.6 ° F 40.2 ° F 37.4 ° F 76% 30.18 pul 6.2 mi NNO 8.1 mph - N/A   Desconocido
4:30 AM 46.4 ° F 43.5 ° F 35.6 ° F 66% 30.15 pul 6.2 mi NNO 5.8 mph - N/A   Desconocido
5:00 AM 46 ° F - 35 ° F 53% 30.16 pul - NNO 10.4 mph - -  
5:00 AM 46.4 ° F 41.9 ° F 33.8 ° F 62% 30.15 pul - NNO 9.2 mph - N/A   Despejado
6:00 AM 47 ° F - 32 ° F 44% 30.15 pul - NNO 11.5 mph - -  
6:00 AM 46.4 ° F 41.9 ° F 32.0 ° F 57% 30.12 pul - NNO 9.2 mph - N/A   Despejado
6:30 AM 46.4 ° F 42.4 ° F 32.0 ° F 57% 30.12 pul - NNO 8.1 mph - N/A   Despejado
7:00 AM 46 ° F - 36 ° F 57% 30.15 pul 28 mi Sin viento Sin viento - -   Despejado
7:00 AM 46.4 ° F - 35.6 ° F 66% 30.12 pul - Sin viento Sin viento - N/A   Despejado
7:30 AM 46.4 ° F - 33.8 ° F 62% 30.12 pul - Variable 2.3 mph - N/A   Despejado
8:00 AM 45 ° F - 35 ° F 59% 30.15 pul - Este 2.3 mph - -  
8:00 AM 44.6 ° F - 35.6 ° F 71% 30.12 pul - Variable 1.2 mph - N/A   Despejado
8:30 AM 44.6 ° F - 35.6 ° F 71% 30.12 pul - Sin viento Sin viento - N/A   Despejado
9:00 AM 47 ° F - 35 ° F 52% 30.16 pul - Norte 4.6 mph - -  
9:00 AM 46.4 ° F 44.3 ° F 33.8 ° F 62% 30.12 pul - Norte 4.6 mph - N/A   Despejado
9:30 AM 48.2 ° F - 37.4 ° F 66% 30.15 pul - Variable 2.3 mph - N/A   Despejado
10:00 AM 49 ° F - 38 ° F 54% 30.17 pul 31 mi NNO 2.3 mph - -   Parcialmente nublado
10:00 AM 48.2 ° F - 37.4 ° F 66% 30.15 pul - Variable 2.3 mph - N/A   Despejado
10:30 AM 50.0 ° F - 37.4 ° F 62% 30.15 pul - Sin viento Sin viento - N/A   Despejado
11:00 AM 53 ° F - 39 ° F 47% 30.18 pul - ESE 1.2 mph - -  
11:00 AM 53.6 ° F - 39.2 ° F 58% 30.15 pul - Variable 1.2 mph - N/A   Despejado
11:30 AM 55.4 ° F - 41.0 ° F 58% 30.15 pul 6.2 mi Variable 1.2 mph - N/A   Parcialmente nublado
12:00 PM 57 ° F - 42 ° F 47% 30.17 pul - Sur 1.2 mph - -  
12:00 PM 55.4 ° F - 42.8 ° F 63% 30.15 pul 6.2 mi Variable 1.2 mph - N/A   Parcialmente nublado
12:30 PM 57.2 ° F - 44.6 ° F 63% 30.12 pul 6.2 mi Variable 1.2 mph - N/A   Parcialmente nublado
1:00 PM 58 ° F - 44 ° F 49% 30.13 pul 28 mi Sur 2.3 mph - -   Nubes dispersas
1:00 PM 57.2 ° F - 42.8 ° F 59% 30.12 pul 6.2 mi Variable 2.3 mph - N/A   Parcialmente nublado
1:30 PM 55.4 ° F - 44.6 ° F 67% 30.09 pul 6.2 mi Sur 3.5 mph - N/A   Parcialmente nublado
2:00 PM 57 ° F - 48 ° F 62% 30.09 pul - SSO 10.4 mph - -  
2:00 PM 57.2 ° F - 48.2 ° F 72% 30.09 pul 6.2 mi SSO 8.1 mph - N/A   Parcialmente nublado
2:30 PM 57.2 ° F - 48.2 ° F 72% 30.09 pul 6.2 mi SO 17.3 mph - N/A   Parcialmente nublado
3:00 PM 57 ° F - 47 ° F 62% 30.07 pul - SO 16.1 mph - -  
3:00 PM 57.2 ° F - 46.4 ° F 67% 30.06 pul 6.2 mi SO 17.3 mph - N/A   Parcialmente nublado
3:30 PM 57.2 ° F - 46.4 ° F 67% 30.06 pul 6.2 mi SO 17.3 mph - N/A   Parcialmente nublado
4:00 PM 57 ° F - 47 ° F 59% 30.07 pul 28 mi SO 16.1 mph - -   Nubes dispersas
4:00 PM 57.2 ° F - 46.4 ° F 67% 30.06 pul 6.2 mi SO 16.1 mph - N/A   Parcialmente nublado
4:30 PM 57.2 ° F - 46.4 ° F 67% 30.06 pul 6.2 mi OSO 15.0 mph - N/A   Parcialmente nublado
5:00 PM 57 ° F - 47 ° F 59% 30.07 pul - OSO 16.1 mph - -  
5:00 PM 57.2 ° F - 46.4 ° F 67% 30.06 pul 6.2 mi OSO 17.3 mph - N/A   Parcialmente nublado
5:30 PM 55.4 ° F - 48.2 ° F 77% 30.04 pul 6.2 mi OSO 15.0 mph - N/A   Parcialmente nublado
6:00 PM 56 ° F - 47 ° F 63% 30.07 pul - OSO 20.7 mph - -  
6:00 PM 55.4 ° F - 46.4 ° F 72% 30.06 pul 6.2 mi OSO 19.6 mph - N/A   Nubes dispersas
6:30 PM 55.4 ° F - 48.2 ° F 77% 30.06 pul 6.2 mi OSO 20.7 mph - N/A   Nubes dispersas
7:00 PM 55 ° F - 48 ° F 71% 30.07 pul 28 mi OSO 12.7 mph - -   Nubes dispersas
7:00 PM 55.4 ° F - 48.2 ° F 77% 30.06 pul 6.2 mi OSO 12.7 mph - N/A   Nubes dispersas
7:30 PM 53.6 ° F - 48.2 ° F 82% 30.06 pul 6.2 mi OSO 10.4 mph - N/A   Nubes dispersas
8:00 PM 55.4 ° F - 48.2 ° F 77% 30.06 pul 6.2 mi OSO 9.2 mph - N/A   Parcialmente nublado
8:30 PM 53.6 ° F - 46.4 ° F 77% 30.09 pul 6.2 mi ONO 5.8 mph - N/A   Parcialmente nublado
9:00 PM 54 ° F - 47 ° F 71% 30.10 pul - OSO 17.3 mph - -  
9:00 PM 53.6 ° F - 48.2 ° F 82% 30.09 pul 6.2 mi OSO 16.1 mph - N/A   Parcialmente nublado
9:30 PM 53.6 ° F - 46.4 ° F 77% 30.09 pul 6.2 mi OSO 12.7 mph - N/A   Parcialmente nublado
10:00 PM 53 ° F - 46 ° F 69% 30.11 pul 25 mi OSO 3.5 mph - -   Despejado
10:00 PM 51.8 ° F - 46.4 ° F 82% 30.09 pul - OSO 3.5 mph - N/A   Despejado
10:30 PM 51.8 ° F - 46.4 ° F 82% 30.09 pul - Variable 2.3 mph - N/A   Despejado
11:00 PM 49 ° F - 45 ° F 79% 30.11 pul - Sin viento Sin viento - -  
11:00 PM 50.0 ° F - 44.6 ° F 82% 30.09 pul 6.2 mi Sin viento Sin viento - N/A   Desconocido
11:30 PM 50.0 ° F - 44.6 ° F 82% 30.09 pul 6.2 mi Variable 1.2 mph - N/A   Desconocido